GW6280 Weather Reports


time (UTC)temp
F
wind
direction
speed
knots
gust
knots
rain 1hr
in
rain 24hr
in
rain mn
in
humidity
%
barometer
mb
20260503210021 81 81 3.5 7.8 0.00 0.00 0.00 36 1014.4
20260503205024 81 300 2.6 4.3 0.00 0.00 0.00 39 1014.5
20260503204022 79 16 3.5 6.1 0.00 0.00 0.00 42 1014.6
20260503203019 78 39 5.2 7.0 0.00 0.00 0.00 43 1014.6
20260503202016 77 40 4.3 7.0 0.00 0.00 0.00 42 1014.8
20260503201021 76 40 4.3 10.4 0.00 0.00 0.00 43 1015.1
20260503200024 77 36 4.3 6.1 0.00 0.00 0.00 40 1015.1
20260503195028 77 296 3.5 7.8 0.00 0.00 0.00 42 1015.2
20260503194051 77 54 4.3 7.0 0.00 0.00 0.00 44 1015.3
20260503193017 77 38 3.5 5.2 0.00 0.00 0.00 42 1015.5
20260503192039 77 72 3.5 6.1 0.00 0.00 0.00 43 1015.5
20260503191023 77 42 4.3 7.8 0.00 0.00 0.00 43 1015.6
20260503190047 77 73 4.3 7.0 0.00 0.00 0.00 43 1015.6
20260503185030 76 14 5.2 7.8 0.00 0.00 0.00 42 1015.8
20260503184016 78 97 3.5 7.0 0.00 0.00 0.00 45 1015.9
20260503183019 77 66 4.3 7.0 0.00 0.00 0.00 44 1015.9
20260503182022 76 43 3.5 5.2 0.00 0.00 0.00 45 1016.0
20260503181027 75 6 4.3 10.4 0.00 0.00 0.00 46 1015.9
20260503180030 75 352 4.3 7.0 0.00 0.00 0.00 48 1016.1
20260503175033 74 41 4.3 7.8 0.00 0.00 0.00 48 1016.1
20260503174018 74 312 4.3 7.8 0.00 0.00 0.00 47 1016.2
20260503173102 73 247 3.5 6.1 0.00 0.00 0.00 49 1016.3
20260503172025 74 21 4.3 6.1 0.00 0.00 0.00 49 1016.4
20260503171029 74 1 3.5 6.1 0.00 0.00 0.00 49 1016.3
20260503131036 45 0.0 0.0 0.00 0.00 0.00 98 1016.1
20260503081030 49 0.0 0.0 0.00 0.00 0.00 94 1016.6
20260503072029 50 0.0 0.0 0.00 0.00 0.00 92 1016.4
20260503071032 50 0.0 0.0 0.00 0.00 0.00 91 1016.4
20260503055023 54 0.0 0.0 0.00 0.00 0.00 86 1016.3
20260503054027 54 0.0 0.0 0.00 0.00 0.00 86 1016.3
20260503053030 55 0.0 0.0 0.00 0.00 0.00 84 1016.3
20260503052015 55 0.0 0.0 0.00 0.00 0.00 84 1016.3
20260503051018 56 0.0 0.0 0.00 0.00 0.00 80 1016.1
20260503050042 56 0.0 0.0 0.00 0.00 0.00 81 1016.1
20260503045020 57 0.0 0.0 0.00 0.00 0.00 78 1015.9
20260503044017 57 0.0 0.0 0.00 0.00 0.00 76 1015.8
20260503043032 58 0.0 0.0 0.00 0.00 0.00 75 1015.8
20260503042018 59 0.0 0.0 0.00 0.00 0.00 72 1015.6
20260503041022 60 0.0 0.0 0.00 0.00 0.00 71 1015.5
20260503040025 60 0.0 0.0 0.00 0.00 0.00 69 1015.4
20260503035029 61 0.0 0.0 0.00 0.00 0.00 68 1015.3
20260503034032 62 263 0.9 1.7 0.00 0.00 0.00 67 1015.2
20260503033018 62 0.0 0.0 0.00 0.00 0.00 64 1015.1
20260503032021 63 262 1.7 2.6 0.00 0.00 0.00 63 1015.1
20260503031025 64 261 1.7 2.6 0.00 0.00 0.00 61 1015.0
20260503030028 65 260 1.7 4.3 0.00 0.00 0.00 59 1015.0
20260503025031 66 232 0.9 2.6 0.00 0.00 0.00 57 1015.0
20260503024017 67 258 1.7 3.5 0.00 0.00 0.00 55 1015.0
20260503023020 67 242 1.7 2.6 0.00 0.00 0.00 53 1015.0
20260503022024 68 263 1.7 3.5 0.00 0.00 0.00 52 1015.0
20260503021027 68 274 2.6 3.5 0.00 0.00 0.00 51 1015.0
20260503020051 68 265 0.9 2.6 0.00 0.00 0.00 51 1015.1
20260503015016 69 271 2.6 4.3 0.00 0.00 0.00 50 1015.1
20260503014020 69 46 2.6 6.1 0.00 0.00 0.00 49 1015.1
20260503013023 69 253 2.6 5.2 0.00 0.00 0.00 48 1015.1
20260503012106 69 295 2.6 5.2 0.00 0.00 0.00 47 1015.3
20260503011023 70 284 2.6 5.2 0.00 0.00 0.00 49 1015.1
20260503010021 70 354 2.6 4.3 0.00 0.00 0.00 48 1015.3
20260503005018 71 292 4.3 6.1 0.00 0.00 0.00 47 1015.3
20260503004016 71 290 2.6 4.3 0.00 0.00 0.00 47 1015.3
20260503003025 71 5 0.9 3.5 0.00 0.00 0.00 47 1015.4
20260503002048 71 348 3.5 6.1 0.00 0.00 0.00 46 1015.4
20260503001032 72 345 2.6 5.2 0.00 0.00 0.00 46 1015.5
20260503000017 73 338 3.5 8.7 0.00 0.00 0.00 46 1015.6
20260502235021 74 13 3.5 5.2 0.00 0.00 0.00 44 1015.6
20260502234024 74 304 3.5 6.1 0.00 0.00 0.00 45 1015.7
20260502233048 75 21 3.5 6.1 0.00 0.00 0.00 43 1015.8
20260502232031 75 315 3.5 6.1 0.00 0.00 0.00 44 1016.0
20260502231016 74 36 4.3 8.7 0.00 0.00 0.00 46 1016.3
20260502230100 75 289 4.3 8.7 0.00 0.00 0.00 46 1016.6
20260502225104 75 13 5.2 9.6 0.00 0.00 0.00 48 1016.6
20260502224027 74 351 4.3 8.7 0.00 0.00 0.00 48 1016.7
20260502223030 74 322 5.2 7.8 0.00 0.00 0.00 47 1016.9
20260502222016 74 16 4.3 10.4 0.00 0.00 0.00 48 1017.0
20260502221019 74 12 3.5 5.2 0.00 0.00 0.00 47 1017.1
20260502215026 75 77 5.2 7.8 0.00 0.00 0.00 47 1017.2
20260502214030 75 35 4.3 9.6 0.00 0.00 0.00 46 1017.3
20260502213047 75 34 5.2 7.0 0.00 0.00 0.00 45 1017.5
20260502212025 74 261 4.3 7.8 0.00 0.00 0.00 44 1017.6
20260502211016 75 271 3.5 5.2 0.00 0.00 0.00 46 1017.6